Dillon, MT

4:53 PM MDT on April 30, 2017 (GMT -0600)
Dillon

Weather History for KDLN - January, 2012

Change the Weather History Date:

Sunday, January 8, 2012

  Actual Average Record
Temperature  
Mean Temperature 28 °F 22 °F  
Max Temperature 38 °F 32 °F 50 °F (1966)
Min Temperature 18 °F 13 °F -34 °F (1937)
Degree Days  
Heating Degree Days 37    
Month to date heating degree days 277  
Since 1 July heating degree days 3397  
Cooling Degree Days 0    
Month to date cooling degree days 0  
Year to date cooling degree days 0  
Moisture  
Dew Point 18 °F    
Average Humidity 64    
Maximum Humidity 80    
Minimum Humidity 47    
Precipitation  
Precipitation 0.00 in 0.01 in 0.16 in (1940)
Month to date precipitation T 0.07  
Year to date precipitation T 0.07  
Snow  
Snow 0.00 in - - ()
Snow Depth 0.00 in    
Sea Level Pressure  
Sea Level Pressure 30.39 in    
Wind  
Wind Speed 5 mph (SW)    
Max Wind Speed 17 mph    
Max Gust Speed 21 mph    
Visibility 10 miles    
Events      
T = Trace of Precipitation, MM = Missing Value Source: NWS Daily Summary

Daily Weather History Graph

Daily Weather History Graph

Search for Another Location

Airport or City:

Trip Planner

Search our weather history database for the weather conditions in past years. The results will help you decide how hot, cold, wet, or windy it might be!

Date:

Astronomy

Jan. 08, 2012 Rise Set
Actual Time 8:08 AM MST 5:05 PM MST
Civil Twilight 7:35 AM MST 5:38 PM MST
Nautical Twilight 6:58 AM MST 6:15 PM MST
Astronomical Twilight 6:22 AM MST 6:51 PM MST
Moon 4:53 PM MST (1/8) 7:29 AM MST (1/8)
Length of Visible Light 10h 03m
Length of Day
8h 56m
Full, 100% of the Moon is Illuminated
Jan 8
Full
Jan 9
Full
Jan 16
Last Quarter
Jan 23
New
Jan 30
First Quarter

Hourly Weather History & Observations

Time (MST) Temp. Windchill Dew Point Humidity Pressure Visibility Wind Dir Wind Speed Gust Speed Precip Events Conditions
12:53 AM 21.9 °F 11.0 °F 10.9 °F 63% 30.35 in 10.0 mi South 10.4 mph - N/A   Mostly Cloudy
1:53 AM 18.0 °F 11.1 °F 10.9 °F 74% 30.36 in 10.0 mi WSW 4.6 mph - N/A   Overcast
2:53 AM 19.9 °F 13.4 °F 10.9 °F 68% 30.35 in 10.0 mi South 4.6 mph - N/A   Mostly Cloudy
4:53 AM 19.0 °F - 12.0 °F 74% 30.36 in 10.0 mi Calm Calm - N/A   Overcast
5:53 AM 18.0 °F - 12.9 °F 81% 30.40 in 10.0 mi Calm Calm - N/A   Overcast
6:53 AM 19.9 °F 14.9 °F 12.9 °F 74% 30.39 in 10.0 mi Variable 3.5 mph - N/A   Overcast
7:53 AM 21.0 °F - 12.0 °F 68% 30.39 in 10.0 mi Calm Calm - N/A   Overcast
8:53 AM 21.9 °F 15.7 °F 12.9 °F 68% 30.39 in 10.0 mi West 4.6 mph - N/A   Overcast
9:53 AM 24.1 °F - 14.0 °F 65% 30.40 in 10.0 mi Calm Calm - N/A   Overcast
10:53 AM 26.1 °F 20.5 °F 14.0 °F 60% 30.41 in 10.0 mi NNW 4.6 mph - N/A   Mostly Cloudy
11:53 AM 28.9 °F 25.2 °F 15.1 °F 56% 30.39 in 10.0 mi NNW 3.5 mph - N/A   Overcast
12:53 PM 32.0 °F - 16.0 °F 52% 30.37 in 10.0 mi Calm Calm - N/A   Mostly Cloudy
1:53 PM 34.0 °F 31.0 °F 17.1 °F 50% 30.38 in 10.0 mi West 3.5 mph - N/A   Clear
2:53 PM 36.0 °F - 18.0 °F 48% 30.36 in 10.0 mi Calm Calm - N/A   Clear
3:53 PM 36.0 °F - 19.9 °F 52% 30.35 in 10.0 mi Calm Calm - N/A   Partly Cloudy
5:53 PM 34.0 °F 26.0 °F 25.0 °F 70% 30.40 in 10.0 mi South 10.4 mph - N/A   Clear
6:53 PM 33.1 °F 23.4 °F 25.0 °F 72% 30.41 in 10.0 mi SSW 13.8 mph - N/A   Partly Cloudy
7:53 PM 34.0 °F 25.5 °F 26.1 °F 73% 30.41 in 10.0 mi SSW 11.5 mph - N/A   Overcast
8:53 PM 33.1 °F 25.5 °F 25.0 °F 72% 30.42 in 10.0 mi WSW 9.2 mph - N/A   Partly Cloudy
9:53 PM 30.9 °F 21.7 °F 25.0 °F 79% 30.42 in 10.0 mi SSW 11.5 mph - N/A   Clear
10:53 PM 33.1 °F 23.0 °F 25.0 °F 72% 30.41 in 10.0 mi South 15.0 mph - N/A   Clear
11:53 PM 33.1 °F 23.9 °F 25.0 °F 72% 30.39 in 10.0 mi SSW 12.7 mph - N/A   Clear